Location: Biltmore Gardens
(41.6070°N, 83.4666°W)
Time: 14:04:52
(UTC+00:00)

Cosmos 921 Rocket - Pass Details

Date: 14 July 2020
Orbit: 572 x 632 km, 75.8° (Epoch: 05 August)

Event Time Altitude Azimuth Distance (km) Brightness Sun altitude
Rises 08:35:08 0° 335° (NNW) 2,888 6.8 -14.9°
Reaches altitude 10° 08:37:30 10° 328° (NNW) 1,968 5.8 -14.6°
Maximum altitude 08:41:35 39° 259° (W) 910 3.5 -14.1°
Enters shadow 08:44:01 20° 202° (SSW) 1,379 4.3 -13.8°
